Location: Navarre
(52.9016°N, 113.4144°W)
Time: 07:17:14
(UTC+00:00)

Envisat - Pass Details

Date: 10 December 2021
Orbit: 764 x 766 km, 98.2° (Epoch: 17 January)

Event Time Altitude Azimuth Distance (km) Brightness Sun altitude
Rises 13:26:32 0° 11° (N) 3,247 6.2 -18.1°
Reaches altitude 10° 13:28:54 10° 6° (N) 2,316 5.4 -17.8°
Maximum altitude 13:33:48 49° 293° (WNW) 983 3.1 -17.1°
Drops below altitude 10° 13:38:40 10° 220° (SW) 2,300 5.2 -16.4°
Sets 13:41:01 0° 215° (SW) 3,222 6.1 -16.0°
